Location: Boiro
(42.6475°N, 8.8834°W)
Time: 18:31:24
(UTC+01:00)

Transit 2A - Pass Details

Date: 06 December 2021
Orbit: 591 x 967 km, 66.7° (Epoch: 20 January)

Event Time Altitude Azimuth Distance (km) Brightness Sun altitude
Rises 01:51:29 0° 229° (SW) 3,303 - -69.2°
Reaches altitude 10° 01:53:55 10° 236° (SW) 2,432 - -69.1°
Maximum altitude 01:59:21 46° 309° (NW) 1,184 - -68.7°
Drops below altitude 10° 02:05:17 10° 21° (NNE) 2,652 - -68.3°
Sets 02:08:02 0° 28° (NNE) 3,631 - -68.1°
